Wind_Speed
51 53 54 53 52 53 54 56 56 56 55 56 56 56 56 56 56 56 55 55 53 52 51 49 48 47 46 45 45 45 45 45 46 47 47 47 47 47 48 50 52 53 53 52 50 48 48 49 50 52 54 56 58 59 60 62 63 64 66 66 67 68 69 70 71 72 71 72 74 75 77 79 81 83 86 88 91 94 95 94 90 87 84 80 77
54 54 54 54 55 56 55 54 53 54 55 55 55 55 55 54 53 53 53 52 51 50 48 47 46 45 45 44 44 45 45 46 46 46 46 46 47 48 50 51 52 53 52 51 50 49 48 50 51 53 55 57 58 60 62 63 64 66 67 67 68 69 70 71 72 73 74 75 76 77 79 80 83 85 87 90 92 94 93 91 88 85 81 76 73
57 58 58 58 57 55 54 53 53 54 53 53 54 54 53 52 51 50 50 50 49 47 46 45 44 44 44 44 44 45 45 46 46 46 46 46 48 49 51 52 52 52 52 51 50 49 50 51 53 54 56 58 60 62 63 65 66 67 68 68 69 70 71 71 72 74 75 77 78 79 81 83 84 86 89 91 92 92 90 88 85 82 78 73 70
58 60 59 58 55 54 54 54 54 52 52 52 51 50 50 49 48 48 48 47 46 45 44 44 43 43 43 44 44 45 45 46 46 46 46 47 49 51 51 52 52 52 52 51 50 51 51 53 54 56 59 60 62 63 65 65 66 68 69 69 70 71 71 72 73 74 76 78 79 80 82 84 86 87 89 91 91 89 87 85 81 78 74 71 68
55 56 56 55 54 54 53 52 50 49 49 49 48 47 47 47 46 46 46 46 45 44 43 43 43 43 43 44 45 45 45 45 46 46 47 49 50 51 51 52 52 52 51 51 51 51 53 55 57 59 61 62 63 64 65 66 67 69 70 71 71 71 72 72 73 74 75 78 80 81 83 84 86 88 90 90 88 86 84 82 78 74 71 68 67
50 52 53 53 52 51 50 48 47 46 46 46 45 45 45 45 45 45 44 44 44 43 43 42 42 43 43 44 44 44 44 45 46 46 48 49 50 51 52 52 52 51 50 51 51 53 54 56 58 60 62 62 63 64 66 67 68 70 71 71 71 72 72 73 74 75 76 78 80 82 83 84 86 89 90 88 85 82 79 77 74 71 68 67 66
46 47 48 48 48 48 47 45 44 44 44 44 44 44 44 45 45 44 43 43 43 42 42 42 42 43 44 44 44 44 44 45 46 47 49 50 50 52 53 52 50 50 51 51 53 54 56 57 59 60 61 62 64 65 66 68 69 71 71 71 72 72 73 74 74 75 77 79 80 82 83 85 87 89 88 86 83 79 75 72 70 69 68 66 64
41 42 43 44 44 44 43 43 43 43 43 44 44 44 44 44 44 43 43 43 43 42 42 42 42 43 44 44 44 44 44 45 46 47 49 51 51 51 51 50 49 50 51 52 53 55 56 58 59 60 61 62 64 65 67 69 70 71 71 72 72 72 73 74 75 76 77 79 81 83 84 86 88 88 86 83 80 76 73 69 67 65 66 65 63
41 41 41 40 41 41 42 43 43 43 43 44 44 44 44 45 44 44 43 44 43 42 42 42 42 43 44 44 44 45 45 45 46 47 49 52 52 51 49 48 49 50 51 52 54 55 56 58 59 61 62 63 64 66 68 70 71 71 72 72 72 72 73 74 75 77 78 80 82 84 85 87 88 86 83 80 76 73 70 67 65 64 65 65 64
44 42 41 41 42 44 45 45 44 44 44 45 45 45 45 45 45 44 44 44 43 43 42 42 43 44 44 45 45 46 46 46 46 47 50 51 51 49 49 49 50 52 52 53 54 55 56 58 60 61 62 64 65 67 69 71 71 72 72 72 72 72 73 74 76 77 79 80 82 84 86 87 86 83 80 76 73 70 68 66 65 65 63 62 62
44 44 45 46 46 47 46 46 45 45 45 45 45 45 45 46 45 45 45 45 44 44 43 43 44 45 45 45 46 46 46 46 46 48 50 50 49 48 49 50 52 53 53 53 54 55 56 58 60 61 63 64 66 68 70 71 71 72 72 71 72 72 73 75 76 77 79 81 82 84 86 85 83 80 76 72 70 68 66 64 64 62 60 57 57
42 44 45 45 46 46 46 45 45 45 45 45 45 46 46 46 46 46 46 45 44 45 44 44 45 46 46 46 47 47 47 46 46 47 48 48 47 48 49 51 52 52 52 53 54 55 56 58 60 61 63 65 67 69 70 71 71 71 71 71 72 73 73 75 76 78 79 81 82 84 85 84 81 77 72 69 67 65 63 62 61 60 58 55 54
40 41 42 43 44 45 46 45 45 45 45 45 45 45 46 46 46 46 46 45 45 45 45 45 46 47 47 47 48 48 48 47 46 46 46 46 47 48 50 51 52 52 52 52 53 55 56 58 60 62 63 65 67 69 70 71 71 71 71 71 72 73 74 75 77 78 80 82 83 85 84 81 79 74 69 66 64 61 60 60 59 58 57 55 54
39 40 41 43 45 46 46 45 44 44 44 44 45 45 45 46 47 47 46 45 46 46 46 46 47 48 48 48 48 49 48 48 47 47 48 48 49 50 51 52 51 51 51 52 53 55 57 59 61 62 64 66 68 70 71 71 71 71 71 72 73 74 75 76 77 78 80 82 84 84 82 80 76 71 67 64 61 59 58 57 57 57 56 56 54
41 41 43 46 48 47 46 44 44 44 44 44 44 44 45 46 47 47 46 45 46 47 47 47 48 48 49 49 49 50 49 47 48 49 50 50 51 52 52 52 51 51 51 52 54 55 57 60 61 63 64 67 69 70 71 72 71 71 71 72 73 74 75 76 78 79 80 82 83 83 81 78 74 68 65 62 60 58 57 56 55 55 56 56 55
45 45 47 50 50 49 47 46 45 44 44 44 44 45 46 47 47 46 46 45 46 47 47 48 48 49 49 49 50 50 49 48 49 51 51 51 51 52 52 51 51 51 51 53 55 56 58 60 62 64 66 68 70 71 72 72 71 71 72 72 73 75 76 77 78 79 80 82 82 81 79 76 71 67 64 61 59 58 56 55 55 55 56 56 56
47 48 50 51 50 50 49 47 46 46 46 46 45 45 47 47 47 46 46 46 46 47 47 48 49 49 49 49 50 51 50 49 51 52 52 51 52 52 52 52 51 52 52 53 55 57 59 61 64 65 67 69 71 72 72 72 72 72 72 72 73 75 75 76 78 79 80 82 80 78 77 74 69 66 64 61 58 57 55 53 53 54 55 55 54
47 49 51 51 49 49 49 49 47 46 47 47 47 46 47 47 47 46 46 46 47 47 48 49 49 49 49 49 51 51 50 50 52 53 53 52 51 51 51 52 53 53 53 55 56 58 60 63 65 67 69 70 72 72 72 72 72 72 72 73 74 74 75 76 77 79 80 80 78 76 75 71 68 66 64 61 59 58 55 52 51 53 54 54 53
49 51 52 51 49 48 50 49 47 46 48 49 48 48 48 48 47 47 47 47 48 48 49 49 49 49 49 49 50 51 51 51 53 54 55 53 52 51 52 53 55 56 56 57 59 61 62 64 66 68 70 71 72 73 72 72 72 72 73 73 74 74 75 76 78 79 80 78 76 75 73 69 67 66 64 61 60 59 56 52 51 52 54 54 52
51 53 54 53 50 50 51 50 47 46 47 48 49 49 49 48 48 48 47 47 48 49 49 50 50 49 49 49 49 50 51 52 53 54 56 54 53 53 53 54 56 58 59 61 62 63 64 66 67 69 71 72 73 73 72 72 72 73 73 73 74 74 75 76 78 79 79 77 75 73 70 67 66 65 64 62 61 60 57 53 52 52 52 53 52
55 56 56 55 53 53 53 50 46 45 46 48 49 51 50 49 49 48 48 48 49 49 50 50 50 50 49 49 49 50 51 52 52 53 55 55 55 55 55 55 57 59 61 62 63 64 65 66 68 70 72 73 73 73 73 72 72 73 73 73 74 74 75 76 78 79 77 75 73 71 67 65 65 64 63 61 61 61 59 55 53 53 52 51 50
58 58 58 57 56 56 54 50 47 47 49 50 51 52 51 50 49 49 48 49 49 50 50 50 50 50 49 47 48 49 50 52 53 53 53 54 55 55 55 57 58 60 62 63 64 65 66 67 69 71 72 73 74 74 73 72 72 73 73 73 74 74 75 76 78 78 75 73 71 68 65 64 64 63 61 60 60 60 60 58 56 55 53 52 49
58 58 58 59 58 57 55 51 49 50 51 51 51 51 50 50 49 49 49 50 50 50 50 50 51 50 49 47 48 50 52 52 53 54 53 54 54 54 55 58 59 61 62 64 65 66 67 68 69 71 73 74 74 74 73 72 72 73 73 73 74 74 75 77 78 76 74 72 69 66 63 63 62 61 59 58 58 59 59 59 58 57 55 52 50
57 57 58 59 58 57 55 52 52 52 52 51 51 51 50 50 49 49 50 50 50 50 50 51 51 51 50 49 49 51 52 52 52 53 54 54 54 55 56 58 60 62 63 64 65 66 67 68 70 71 73 74 74 73 73 72 73 73 73 73 74 74 75 77 77 75 72 71 67 63 62 61 61 60 58 56 55 57 58 58 58 58 57 55 52
56 57 58 58 57 56 55 54 53 53 52 52 52 51 50 50 50 50 51 51 51 51 51 52 52 51 51 51 51 52 52 52 52 53 54 54 55 55 57 59 61 62 64 64 65 67 68 69 70 72 73 74 74 73 72 72 73 73 73 74 74 74 76 76 75 73 71 69 65 62 61 61 59 58 57 54 54 55 56 56 56 56 56 56 55
57 57 57 56 56 56 55 55 54 54 53 53 52 51 51 50 50 51 51 51 52 52 52 52 52 52 52 52 52 53 53 52 53 54 54 55 55 56 58 60 61 63 64 65 66 67 69 70 71 72 73 74 73 72 72 72 73 73 74 74 74 75 76 75 74 72 70 67 63 60 60 59 58 57 56 54 53 53 53 54 54 53 53 54 54
58 57 57 57 56 56 56 55 55 54 54 53 52 52 51 51 51 51 51 52 52 52 52 52 52 52 53 53 53 53 53 52 53 54 55 55 56 57 59 61 62 63 64 65 66 68 70 71 72 73 74 73 72 72 72 72 73 73 74 75 75 76 75 74 72 71 69 65 61 59 59 58 57 56 54 53 51 51 52 52 52 51 50 50 51
58 58 58 57 56 56 56 56 55 55 54 53 53 52 52 52 52 53 53 53 52 52 52 52 52 52 54 54 54 54 53 53 53 55 55 56 57 58 60 61 63 64 64 65 67 69 70 72 73 74 74 73 72 72 72 72 72 73 74 75 76 76 74 72 70 69 66 62 59 58 58 57 56 55 53 52 50 50 50 51 50 49 48 47 48
58 58 58 57 57 57 57 57 56 55 54 53 53 53 54 54 54 54 54 54 53 52 51 51 52 53 54 54 54 54 54 53 53 55 55 56 58 59 61 62 64 64 64 66 68 69 70 72 73 74 73 72 72 71 71 72 72 73 74 76 76 76 73 70 69 67 64 59 58 57 57 56 55 54 52 51 48 47 49 50 50 48 47 46 46
57 57 57 58 58 58 58 58 57 56 54 53 53 54 55 55 56 55 55 54 53 52 51 51 51 53 54 54 54 54 54 54 53 54 55 57 59 61 62 63 64 64 65 67 69 70 71 72 73 73 72 72 71 71 71 71 72 73 74 76 76 74 72 70 67 64 60 57 56 56 56 55 54 52 51 50 47 45 46 48 49 48 45 45 45
56 57 58 60 61 59 57 55 53 52 52 52 53 54 55 56 57 57 56 54 53 52 51 50 50 52 53 54 54 54 54 54 53 53 55 58 61 62 63 64 64 65 66 68 69 70 72 73 73 72 72 71 71 71 71 71 72 73 75 76 75 73 71 69 65 61 58 56 55 55 55 54 52 51 50 48 45 43 44 46 48 48 45 44 45
55 57 60 62 62 59 54 50 50 52 53 54 55 56 57 58 59 58 56 54 53 52 50 49 50 51 53 53 54 54 54 54 53 53 55 59 62 63 64 64 64 65 67 68 69 71 72 73 72 71 71 71 71 71 71 71 72 73 75 74 73 72 70 66 61 58 56 55 54 54 54 53 51 50 49 47 44 42 41 44 47 48 46 45 44
56 58 60 62 63 61 58 57 57 57 57 56 57 58 59 60 59 58 57 55 53 51 49 48 49 51 52 53 55 55 55 54 53 53 56 59 62 64 64 64 65 66 67 68 70 71 72 72 71 70 71 71 71 71 71 72 73 74 74 73 72 71 67 62 57 56 55 54 53 52 52 51 50 49 48 46 43 40 39 41 44 47 46 44 44
57 59 61 63 63 63 62 61 60 59 59 60 61 63 63 63 62 59 57 54 52 49 47 47 48 50 51 53 54 54 54 54 54 55 57 60 62 63 64 65 65 66 67 69 71 72 71 71 70 70 70 70 70 71 71 73 74 74 73 72 72 68 63 58 56 55 54 52 51 50 50 50 49 48 47 45 41 39 38 40 42 45 45 44 43
59 62 64 65 64 63 62 60 59 59 60 60 62 64 65 65 63 59 55 52 50 47 46 47 48 49 50 51 52 53 53 54 55 56 58 59 61 63 65 65 66 66 68 70 71 71 70 70 69 69 69 69 70 71 72 73 74 73 72 71 69 64 60 57 55 54 52 50 49 48 48 48 47 46 45 43 40 38 38 39 41 43 44 43 43
64 66 68 66 64 61 60 59 59 56 53 53 57 62 65 65 62 56 51 49 47 46 46 47 48 49 49 50 51 52 54 55 56 57 58 59 61 63 65 66 66 67 69 70 70 70 69 69 69 68 69 69 70 71 72 73 72 72 71 68 65 61 59 57 54 52 50 48 46 45 46 46 46 45 44 42 38 36 37 39 41 42 42 42 42
67 68 69 66 63 61 60 61 60 57 54 57 62 66 66 64 60 54 49 46 46 45 46 47 48 49 49 49 50 52 54 55 57 58 59 60 62 63 65 66 67 68 70 70 69 68 68 68 68 68 68 69 70 71 73 72 71 70 69 65 62 60 58 56 52 49 47 45 44 44 44 45 44 43 42 40 37 36 37 39 41 42 42 41 42
67 68 67 66 64 63 63 62 60 57 55 56 60 63 63 61 57 53 49 46 45 45 46 47 48 48 49 49 50 52 54 56 58 59 61 62 63 63 65 66 68 69 69 68 67 67 67 67 67 68 68 69 70 72 72 71 70 68 65 62 60 59 57 54 50 46 44 42 42 43 43 43 42 41 40 39 36 35 36 38 39 41 42 41 41
69 69 69 69 69 67 66 64 62 59 56 54 56 60 62 61 59 54 49 47 46 45 46 47 48 49 49 50 51 52 54 56 58 60 61 62 63 64 66 68 68 68 67 66 66 66 66 66 67 67 68 69 70 71 70 70 68 65 61 59 59 57 55 52 48 44 41 41 41 41 42 42 40 39 38 37 35 35 36 37 38 40 41 41 41
74 74 74 74 72 69 67 65 64 62 61 60 62 63 63 62 62 59 54 51 49 47 47 48 49 50 50 51 52 53 55 57 59 61 62 63 64 66 67 68 68 66 65 65 65 66 66 66 66 66 67 69 70 69 69 68 65 61 58 57 56 55 52 50 45 41 39 39 40 40 40 40 39 39 38 36 34 34 35 36 38 39 39 39 40
79 79 77 75 72 68 66 65 64 63 63 64 66 67 68 68 68 65 61 57 53 51 51 52 52 52 52 53 54 55 57 59 61 62 63 65 66 67 67 67 66 65 64 64 65 65 65 65 65 66 68 69 69 68 67 66 62 58 56 55 54 52 50 47 43 40 38 38 39 39 39 39 39 38 37 36 35 34 35 36 37 38 38 39 39
79 77 75 73 71 68 67 66 66 66 66 67 68 69 70 71 71 68 63 59 57 56 55 55 55 55 55 55 56 57 59 61 62 64 65 66 67 67 67 66 65 64 63 63 64 64 63 64 65 66 68 69 68 67 66 64 60 56 54 53 52 51 49 46 42 40 38 38 39 39 39 39 38 38 37 36 35 36 36 36 37 38 38 39 39
76 74 72 71 70 69 68 68 68 68 68 68 67 67 68 70 70 68 63 59 58 57 57 57 57 58 59 59 60 60 60 62 64 66 67 68 67 66 66 65 63 63 63 62 62 62 62 64 65 67 68 68 67 66 64 62 58 55 53 52 50 49 48 45 42 40 39 39 39 39 39 38 38 37 36 36 36 36 37 36 37 38 38 38 39
74 72 70 70 69 68 68 67 67 66 65 63 62 62 64 66 67 65 62 59 58 57 57 58 59 61 62 63 62 62 63 64 66 67 68 67 66 65 64 63 63 62 62 62 61 61 62 63 66 67 67 67 66 65 63 60 56 54 52 50 49 48 47 44 42 41 40 40 40 40 39 38 37 36 36 36 36 36 36 36 37 37 38 38 38
72 70 68 67 65 63 61 60 59 58 57 56 56 57 59 60 62 61 60 58 58 58 58 60 62 64 65 65 65 65 66 67 67 68 67 66 65 64 63 62 62 61 61 60 60 60 62 64 66 66 66 65 65 64 62 58 55 53 51 49 48 47 45 43 41 40 40 40 40 40 39 38 36 34 35 36 37 37 36 36 37 38 38 38 38
66 64 61 59 57 56 55 54 53 53 52 52 53 54 55 57 58 58 58 59 59 60 61 62 64 65 66 66 67 68 69 68 67 67 66 65 63 63 62 61 61 60 60 59 59 60 62 64 65 65 64 64 64 63 61 57 54 52 50 48 46 45 44 42 40 38 38 39 39 38 38 37 35 34 34 36 37 37 37 37 37 38 39 38 37
56 55 54 54 53 52 52 52 52 51 51 52 52 53 54 55 57 58 59 60 61 62 63 64 65 67 67 68 69 70 69 68 66 66 65 64 63 62 62 61 60 59 59 59 59 61 62 64 64 64 63 63 63 63 60 56 53 51 49 47 45 44 43 41 39 38 37 37 37 37 37 36 36 36 36 36 37 37 37 37 38 39 39 38 36
50 51 53 53 52 52 52 52 52 53 54 54 55 55 56 56 57 58 59 61 63 64 65 66 67 69 69 70 70 70 69 67 65 63 62 63 62 62 61 60 59 59 59 59 60 61 63 63 63 62 63 63 63 62 60 55 52 51 49 47 45 44 43 42 40 39 38 37 37 37 37 37 37 38 37 37 37 37 37 38 38 39 39 37 35
50 52 54 55 54 53 53 53 54 56 56 57 57 58 59 60 61 61 62 63 65 67 68 68 69 70 70 70 70 69 68 66 64 61 61 62 62 62 61 60 59 59 59 60 61 62 63 62 62 61 62 62 62 61 59 55 51 49 48 47 46 45 44 42 41 40 39 38 38 38 38 38 39 39 39 38 38 38 38 39 39 39 38 36 34
53 54 55 56 57 56 55 56 57 58 59 59 60 61 62 63 64 64 65 66 67 69 69 69 69 69 69 68 67 66 65 64 63 62 61 61 61 61 61 60 59 59 60 61 62 63 63 62 61 61 62 61 61 60 58 54 50 48 48 46 45 45 44 43 42 41 40 39 39 39 39 39 39 39 39 39 39 39 39 39 39 37 36 34 32
56 57 57 58 58 58 59 59 60 61 61 62 63 64 64 65 66 66 67 68 68 69 69 69 68 67 66 65 64 64 64 64 64 63 61 60 60 60 60 60 60 60 61 62 63 63 63 62 61 62 62 61 60 60 58 54 50 48 47 46 46 45 44 43 42 42 41 40 40 39 39 39 39 39 39 39 39 39 39 38 37 36 34 32 30
Wind_Direction
265 266 266 267 269 271 274 277 278 278 279 281 283 284 285 286 286 287 288 289 290 290 291 292 292 293 294 295 296 296 296 296 296 295 296 297 297 297 297 298 299 300 303 308 312 312 313 315 317 319 320 320 320 320 320 321 321 321 322 322 322 321 321 321 321 322 322 322 322 322 322 322 322 323 324 324 325 325 324 324 324 324 324 324 324
264 267 269 270 272 274 276 278 279 279 280 281 282 284 285 285 286 287 288 288 289 290 291 292 293 294 295 296 296 296 296 296 295 296 297 297 296 296 297 298 298 302 307 311 311 312 314 316 318 319 320 320 320 321 321 321 321 321 321 321 320 320 321 322 322 322 322 323 322 322 323 323 323 324 325 325 325 325 324 323 323 323 323 324 323
263 266 270 272 273 274 276 279 281 281 280 281 282 284 284 285 286 287 287 288 289 291 292 293 293 294 296 296 296 296 295 296 296 296 296 296 295 296 297 298 301 305 309 310 311 313 315 317 318 319 320 321 321 321 321 320 320 320 320 320 320 321 322 322 322 323 323 323 323 323 323 324 324 325 325 325 325 324 324 323 323 323 323 323 323
264 267 269 271 273 275 278 280 281 280 280 281 282 283 284 285 285 286 287 288 290 292 292 293 294 295 296 296 295 295 296 296 296 296 295 295 295 296 298 300 304 307 309 310 312 315 316 317 319 320 321 322 321 320 319 319 319 319 319 319 320 321 322 322 323 323 323 323 323 323 324 324 324 325 325 325 324 324 323 323 323 323 323 323 324
264 266 268 271 274 277 279 280 279 279 280 281 282 283 284 284 285 286 288 289 290 292 292 293 294 295 295 295 295 296 297 296 295 295 294 294 295 297 300 303 306 308 309 311 313 314 316 319 321 321 321 320 319 318 318 318 319 319 319 320 321 322 322 322 323 323 323 323 323 323 324 324 324 324 324 325 325 325 324 323 323 323 323 324 325
265 267 269 273 276 277 278 278 278 279 280 281 282 283 283 284 285 287 288 289 290 291 291 292 293 294 294 294 295 296 296 294 295 294 293 294 296 298 301 304 306 308 309 312 313 315 318 320 319 319 318 317 317 317 317 318 318 318 319 320 321 321 322 322 323 323 323 323 323 323 323 324 324 324 325 325 325 325 324 323 323 323 324 326 326
268 269 271 273 274 275 277 278 279 279 280 282 283 283 284 285 286 287 288 289 290 290 291 291 292 293 293 294 295 295 294 294 294 294 293 294 296 300 302 305 307 309 311 313 314 316 317 317 316 316 316 316 316 316 317 317 318 319 320 320 321 321 322 322 322 322 322 322 322 323 323 324 324 325 325 326 325 325 324 324 325 325 326 326 326
271 272 272 272 273 275 278 279 280 281 282 282 283 284 285 286 286 287 288 288 289 289 290 291 291 292 293 294 294 293 293 293 294 294 294 294 298 302 304 306 308 309 311 313 313 314 315 314 315 315 316 316 316 316 316 317 318 319 320 320 321 321 322 322 322 322 322 323 323 323 324 325 325 325 326 326 326 326 326 326 326 326 326 326 327
275 273 272 273 274 277 280 281 281 282 282 283 284 284 285 286 287 288 288 288 288 288 289 290 290 291 292 293 292 292 293 294 294 294 293 296 301 305 306 307 308 309 310 311 311 311 313 313 314 315 316 315 315 315 316 318 319 319 319 320 321 321 322 322 322 322 322 323 323 324 324 325 326 326 327 327 326 327 327 327 327 327 327 328 328
275 272 272 274 277 280 281 281 281 282 283 283 284 284 285 286 286 287 287 287 288 288 288 288 289 290 291 291 291 292 293 294 295 294 294 298 304 306 306 307 308 308 308 308 309 310 312 313 314 315 315 315 315 316 317 318 319 319 319 320 321 321 321 321 321 322 323 323 324 324 325 325 326 327 327 327 327 328 328 329 329 328 328 328 327
275 272 273 276 278 279 280 281 282 283 283 283 284 284 285 285 285 286 286 287 288 287 287 287 288 288 289 290 291 292 293 295 295 294 297 302 305 305 305 305 305 305 306 307 308 310 311 313 314 314 315 315 316 317 318 318 318 318 319 320 320 321 321 321 322 323 323 323 324 324 325 325 326 328 328 328 329 329 329 329 327 325 325 326 325
275 274 275 277 278 280 281 282 283 283 283 283 283 283 284 284 284 284 285 286 287 286 286 286 286 287 288 289 290 291 293 295 295 295 298 301 302 301 300 300 301 303 305 307 308 310 311 312 313 314 315 316 317 317 317 317 318 318 319 320 320 320 321 321 322 323 323 324 324 325 325 326 327 328 328 329 329 329 328 326 324 323 324 324 324
273 274 276 279 281 282 283 283 283 283 283 283 283 283 283 283 283 283 284 285 286 285 285 285 285 286 287 288 290 291 293 294 294 295 297 298 297 297 298 299 301 304 306 307 308 310 311 312 313 315 316 317 317 317 317 317 318 319 319 319 319 320 321 322 322 323 324 324 325 326 326 327 327 328 329 329 329 327 326 325 324 324 324 324 325
271 275 279 282 283 284 284 283 283 283 283 283 283 283 282 282 282 282 283 284 284 284 284 284 284 285 286 288 289 291 292 294 294 295 296 296 296 297 299 301 303 305 306 307 308 309 310 312 314 316 317 317 317 317 317 318 318 319 319 319 319 320 321 322 323 324 324 324 325 326 327 327 328 328 328 328 327 326 325 325 325 325 326 326 327
271 276 281 285 285 285 284 284 283 283 284 284 284 283 283 282 281 282 282 283 283 283 283 283 283 284 286 287 289 290 292 294 294 294 295 296 297 299 300 303 304 305 306 307 308 309 310 313 315 316 317 317 317 317 318 318 318 318 318 318 319 320 322 323 324 324 324 325 326 327 327 327 327 326 326 327 326 325 326 327 327 327 329 329 329
271 276 282 285 286 285 285 284 284 284 284 285 285 285 284 282 282 282 282 282 281 282 282 282 282 283 284 286 288 289 291 293 293 292 294 296 298 300 302 304 304 305 306 307 308 309 311 313 315 317 317 317 317 318 318 318 318 318 318 319 320 321 322 323 324 324 325 326 327 327 327 326 325 325 326 326 326 326 328 329 330 331 331 331 331
274 277 282 285 286 285 284 283 283 284 285 285 286 286 285 284 283 283 282 281 281 281 281 281 281 282 283 285 287 289 291 293 292 292 295 297 299 301 303 304 304 305 307 307 308 310 312 314 316 316 317 317 318 318 318 318 317 317 318 319 320 321 323 323 324 324 325 327 327 327 326 325 324 324 326 327 327 327 329 331 331 332 332 332 332
276 280 283 285 285 285 283 283 284 285 286 286 286 286 286 285 284 283 282 281 280 280 279 280 280 281 282 284 287 289 291 292 292 293 294 296 299 302 303 304 304 306 307 308 310 312 314 315 315 316 316 317 318 318 318 317 317 317 318 319 320 321 323 323 324 324 326 327 327 326 326 325 324 324 326 328 328 327 329 332 333 334 333 333 332
277 280 282 283 283 284 283 284 286 286 286 286 287 287 286 285 284 283 282 281 280 279 279 279 279 281 282 284 287 289 291 291 292 293 294 297 300 302 303 305 306 308 310 312 313 313 314 314 315 315 316 317 318 317 317 316 316 317 318 319 321 322 323 323 324 325 327 327 327 326 326 325 324 325 327 329 328 328 330 332 335 336 335 333 333
276 278 279 279 281 283 283 285 288 289 288 286 286 286 286 286 285 283 281 281 280 280 279 280 280 281 282 284 286 288 289 290 292 294 296 299 302 303 304 307 309 311 312 313 312 312 312 313 314 315 315 316 317 317 316 316 316 317 318 320 321 322 323 324 324 326 327 327 327 327 326 325 325 326 327 329 329 328 330 333 336 337 336 334 333
273 275 276 277 279 281 282 285 287 285 282 282 283 285 286 286 285 284 282 281 281 280 281 281 281 281 282 284 285 285 286 289 292 294 297 300 302 303 306 309 310 311 311 310 310 310 311 312 313 314 315 316 316 316 315 315 316 317 319 320 321 322 323 324 325 326 327 327 327 326 325 325 325 326 328 329 329 328 330 333 336 337 336 334 333
271 273 274 275 277 279 281 282 282 279 278 280 282 284 285 285 285 284 283 282 281 281 281 281 281 280 281 282 283 284 287 290 291 293 296 299 301 304 307 309 309 309 309 308 308 309 310 311 312 313 315 315 315 315 315 316 317 318 319 320 321 322 323 324 325 326 327 327 327 326 325 325 325 326 328 329 329 329 331 333 336 337 336 334 333
270 271 271 273 275 277 279 280 280 280 281 283 284 284 284 284 284 283 282 282 281 281 281 281 280 280 280 280 282 284 287 289 291 293 295 298 301 304 306 306 307 307 307 307 307 308 309 311 312 313 314 314 314 315 315 316 317 318 319 320 321 322 324 324 325 326 326 327 326 326 325 325 325 326 327 329 330 330 331 333 334 335 335 334 334
269 270 270 272 274 276 278 279 280 281 282 283 284 284 284 283 283 282 281 281 281 281 281 280 280 280 280 280 281 283 285 287 289 291 293 296 299 301 303 304 305 306 306 306 306 307 308 310 312 313 313 313 314 315 315 316 317 318 319 320 321 323 324 325 325 325 326 326 326 325 325 325 325 325 326 329 331 331 331 332 334 334 335 335 335
269 269 270 272 274 275 277 279 279 280 282 283 283 283 283 283 283 282 281 281 281 281 280 280 280 280 280 280 281 282 283 285 287 288 291 294 296 299 301 303 304 304 305 305 305 306 308 310 311 312 313 313 314 314 315 316 317 318 319 320 321 323 324 324 324 324 325 326 325 324 324 324 324 324 326 329 332 331 331 331 333 334 335 335 335
270 271 272 273 274 276 277 277 278 280 281 282 282 282 283 283 283 282 282 282 282 281 280 280 280 280 279 279 280 281 283 285 286 288 290 292 295 297 300 301 303 304 304 304 304 306 307 309 311 312 312 313 314 314 315 316 317 318 319 320 321 323 324 324 324 324 324 325 324 324 324 324 324 324 326 329 331 331 330 330 332 334 335 335 337
271 272 273 274 275 276 276 277 278 279 281 281 282 282 283 283 283 283 284 284 283 282 280 280 279 280 279 279 279 281 283 285 286 288 289 291 294 296 299 300 302 303 303 303 304 305 307 309 310 311 312 313 314 314 315 316 317 318 319 320 321 322 323 323 323 323 324 323 322 323 323 323 323 323 325 329 331 330 329 330 332 334 335 337 338
270 271 272 274 274 275 275 276 277 279 280 281 281 282 283 283 283 284 284 284 283 282 280 279 278 278 278 279 279 281 283 284 286 287 289 291 294 296 298 300 301 301 302 302 304 305 307 308 310 311 312 313 313 314 315 316 317 318 319 320 320 321 322 322 322 322 322 322 321 321 322 322 322 323 324 328 330 329 328 328 331 333 336 338 338
269 270 271 272 273 273 275 276 277 278 279 280 281 282 283 283 283 284 284 283 282 281 279 278 277 277 277 278 279 281 283 284 286 287 289 292 294 296 297 299 300 300 301 302 303 305 307 308 310 311 312 312 313 313 315 316 317 318 318 319 320 320 321 321 321 321 321 320 320 320 321 321 322 322 323 326 329 329 327 327 329 332 335 337 337
267 269 270 271 272 273 275 276 277 277 277 279 281 282 283 283 283 283 283 283 282 280 278 277 277 277 277 277 279 280 282 284 286 288 290 292 293 295 297 298 299 300 301 302 303 305 307 308 310 311 312 312 312 313 314 316 317 318 318 318 319 319 320 320 320 319 319 319 318 319 319 320 320 320 322 325 328 328 327 326 327 331 334 337 337
267 269 270 272 273 274 276 276 276 275 277 280 281 282 283 283 284 283 283 283 283 280 278 276 277 277 277 277 278 279 281 284 286 288 290 292 293 294 296 297 298 299 300 302 303 305 307 309 310 311 311 311 312 313 315 316 317 317 317 317 318 318 319 319 319 318 317 317 317 317 317 318 318 319 320 323 326 327 326 326 326 329 334 337 337
267 269 271 273 274 275 273 273 274 276 279 282 283 283 284 285 285 285 285 285 283 281 278 276 276 277 277 278 278 280 282 284 286 289 290 291 292 294 295 296 298 299 300 302 304 305 307 309 309 310 310 311 312 313 315 315 316 316 317 317 317 317 318 318 317 316 316 315 315 315 315 315 316 317 319 322 325 326 326 325 325 328 332 336 336
268 270 272 273 273 272 271 273 276 280 282 284 284 284 284 285 285 286 286 285 284 281 278 276 275 276 277 278 280 281 283 285 287 289 289 290 292 293 295 296 297 299 300 302 304 306 307 308 309 309 310 311 313 314 314 315 315 316 316 316 316 317 317 316 315 314 314 313 313 313 313 313 315 316 317 320 323 325 324 325 325 326 329 334 336
269 270 270 271 271 271 272 275 278 280 283 285 284 284 284 284 285 286 285 284 282 279 277 276 277 277 278 279 280 282 284 286 288 288 289 290 292 293 294 296 297 299 301 302 304 306 307 307 308 309 310 311 313 313 314 314 315 316 316 316 316 316 316 315 314 313 312 311 311 310 311 311 313 314 316 318 322 323 323 323 324 324 328 333 336
269 269 270 270 271 272 273 275 278 282 286 286 285 284 284 283 283 284 283 281 279 277 276 277 278 278 279 280 282 283 285 286 287 288 289 291 292 293 294 296 298 299 301 303 304 306 306 306 307 309 310 311 312 312 313 315 315 316 316 316 315 315 314 313 313 311 310 309 308 308 308 309 311 312 314 317 321 322 322 322 322 324 327 332 335
270 272 272 272 272 272 273 276 279 282 284 282 281 282 283 283 283 282 280 277 276 276 276 277 278 278 279 281 282 284 285 287 288 289 290 291 292 293 294 296 298 299 301 303 305 305 305 306 307 309 310 311 311 312 314 315 315 315 315 315 314 313 313 312 311 310 308 307 306 306 306 307 309 311 312 316 320 321 320 320 322 324 327 332 334
272 272 273 272 272 272 274 276 278 278 276 275 276 278 280 282 283 281 278 275 275 276 277 277 278 279 280 281 283 285 286 288 289 290 291 291 292 293 295 296 298 300 302 303 304 304 305 306 307 309 310 310 312 313 314 315 315 315 315 314 313 312 312 312 310 309 307 305 305 305 305 306 308 309 311 315 318 319 318 319 321 324 327 332 334
270 270 270 270 270 272 274 275 275 275 275 275 276 276 278 280 282 281 279 277 276 277 278 278 279 280 281 282 284 285 287 288 289 290 290 291 292 294 295 297 299 301 302 303 303 303 304 306 307 308 309 311 312 314 314 315 315 315 315 314 313 312 312 311 310 308 306 304 303 302 302 304 306 308 310 313 316 317 317 319 321 323 327 331 333
267 267 267 268 270 272 273 272 273 273 273 273 273 275 278 281 282 282 282 281 279 279 279 279 279 280 282 283 285 286 287 288 288 289 290 291 293 294 295 297 299 301 302 302 302 303 304 306 307 309 310 312 313 314 314 314 315 315 315 314 313 312 311 310 309 307 304 302 301 300 301 303 306 307 309 312 315 316 316 318 320 323 326 330 331
265 265 266 268 270 270 270 270 271 272 271 271 272 273 275 277 279 281 284 284 283 282 281 281 282 282 284 285 286 287 288 288 288 289 291 292 293 294 296 298 299 300 300 301 301 303 304 306 307 309 310 312 313 313 313 314 315 315 315 314 313 312 311 310 308 306 304 301 300 300 301 304 306 308 309 312 314 314 314 316 319 322 325 328 329
264 265 266 267 268 268 268 269 269 270 270 270 270 270 271 272 274 277 280 283 284 285 285 285 285 285 285 286 286 286 287 288 289 290 291 292 293 295 297 298 298 298 299 300 301 303 305 306 308 309 311 312 312 313 314 315 316 315 315 314 313 312 311 309 308 306 304 302 300 301 303 305 307 308 310 312 313 313 313 315 318 321 324 327 327
264 264 265 266 267 268 268 268 269 269 269 269 269 269 268 268 269 271 275 279 282 283 284 285 286 286 286 285 285 285 287 288 289 290 291 292 294 295 296 296 297 298 299 300 302 304 306 307 308 309 311 311 312 313 315 316 316 316 315 315 314 313 311 309 308 307 305 303 302 303 305 306 307 308 310 312 312 311 313 316 319 321 324 326 327
263 264 265 266 267 268 268 269 269 269 269 268 268 267 265 264 265 268 272 276 279 281 282 284 284 284 284 284 285 286 287 288 289 290 291 293 294 295 295 296 297 298 299 301 303 304 306 307 308 310 311 311 312 314 317 317 317 316 316 316 315 314 312 310 308 307 306 304 304 305 305 306 308 309 310 310 309 310 312 315 318 320 323 324 325
262 263 265 266 268 268 268 269 268 268 267 266 265 264 263 262 264 267 272 275 278 280 281 282 282 283 283 284 286 287 287 287 288 290 291 293 293 294 294 295 297 299 300 302 303 304 306 307 308 310 311 312 313 315 317 318 317 316 316 317 316 316 314 311 309 308 306 305 305 305 305 306 308 309 308 307 307 308 312 315 317 319 321 322 323
262 264 266 267 268 268 267 266 264 264 263 263 263 263 263 263 265 269 273 275 277 278 279 279 280 281 282 284 285 286 286 288 289 290 291 292 292 293 294 295 297 299 300 301 303 304 306 307 308 309 311 312 313 315 317 317 316 316 317 317 318 318 316 313 310 307 305 304 304 304 305 306 307 307 305 304 305 308 312 314 316 317 318 319 321
262 263 265 265 265 263 261 260 260 260 261 262 263 263 264 265 268 270 273 274 275 276 276 276 277 279 280 282 284 285 287 288 289 290 290 291 291 293 294 296 297 299 300 301 302 304 305 306 308 309 311 312 314 315 317 317 315 316 317 317 318 319 317 313 309 305 303 302 302 302 303 304 304 303 303 303 305 308 311 313 314 315 316 317 319
262 262 262 261 260 259 258 258 259 260 262 263 265 265 266 267 269 270 271 272 272 273 273 274 275 277 279 281 283 285 286 287 288 288 289 290 291 293 295 296 297 298 299 300 301 303 305 307 308 309 311 312 313 315 316 316 315 315 316 317 318 318 317 315 311 306 303 302 301 301 301 302 302 302 302 303 305 308 310 311 312 312 313 314 316
261 261 261 260 259 259 259 260 261 262 263 264 265 265 266 267 267 268 269 269 270 271 273 274 276 278 280 282 283 284 285 286 286 288 289 291 292 293 294 295 296 297 298 299 301 303 305 307 308 310 311 312 313 314 315 315 314 314 316 316 317 318 318 317 314 311 307 305 303 302 302 302 302 302 303 305 306 307 308 309 309 309 310 312 314
259 259 261 262 261 261 260 261 262 262 263 263 264 265 265 266 266 267 268 269 271 272 274 275 278 279 281 282 283 284 285 286 286 287 289 290 292 293 294 295 295 296 297 299 301 303 305 307 308 309 310 311 312 312 313 313 312 313 314 315 316 316 316 316 316 314 312 309 306 304 303 303 303 303 304 305 306 306 306 306 307 307 309 311 312
257 257 259 261 262 263 262 262 262 262 263 263 264 264 265 266 267 268 269 270 271 273 274 276 278 279 281 282 283 283 284 286 287 288 289 290 291 292 293 294 295 296 298 300 302 304 305 307 308 309 309 310 310 311 311 310 311 312 313 314 313 314 314 314 315 315 314 312 310 308 306 305 305 304 305 305 305 305 305 305 306 307 309 309 308
256 257 258 259 261 262 263 263 263 263 263 264 264 265 266 267 268 269 270 271 272 274 275 276 277 278 279 280 282 283 285 286 287 288 289 289 290 291 292 293 294 296 298 300 302 303 305 306 307 308 308 308 308 308 309 308 309 310 312 312 311 311 312 313 314 315 315 314 312 311 309 308 307 306 305 305 305 305 305 306 307 308 309 308 305
Height
10706 10705 10705 10708 10709 10710 10710 10710 10710 10710 10710 10708 10706 10704 10703 10702 10701 10699 10697 10696 10695 10694 10693 10691 10689 10687 10686 10684 10682 10680 10678 10676 10674 10672 10671 10669 10666 10664 10661 10658 10654 10651 10649 10647 10645 10642 10638 10634 10630 10626 10622 10618 10615 10611 10606 10602 10597 10593 10587 10582 10577 10571 10566 10560 10554 10548 10545 10540 10533 10526 10520 10512 10504 10497 10489 10480 10471 10461 10451 10443 10436 10429 10423 10418 10411
10701 10699 10699 10701 10703 10704 10704 10705 10704 10704 10704 10702 10700 10698 10697 10697 10696 10694 10691 10690 10689 10688 10687 10686 10684 10682 10680 10678 10677 10675 10673 10671 10669 10667 10666 10664 10661 10658 10656 10652 10649 10646 10644 10642 10639 10636 10632 10629 10625 10621 10617 10613 10609 10605 10600 10596 10591 10586 10581 10576 10571 10565 10560 10554 10547 10540 10534 10530 10525 10518 10511 10504 10497 10489 10481 10473 10464 10455 10445 10436 10429 10422 10416 10413 10407
10695 10694 10694 10695 10697 10698 10698 10698 10698 10697 10697 10696 10694 10692 10691 10691 10690 10688 10686 10684 10684 10683 10682 10680 10679 10677 10675 10673 10671 10669 10668 10666 10664 10663 10661 10659 10656 10653 10650 10647 10644 10642 10639 10636 10633 10630 10626 10623 10619 10615 10611 10607 10603 10599 10594 10590 10585 10580 10575 10570 10565 10559 10554 10548 10541 10534 10527 10520 10515 10509 10502 10495 10488 10481 10474 10466 10458 10450 10440 10431 10423 10416 10410 10407 10402
10689 10688 10688 10689 10691 10692 10692 10692 10692 10691 10690 10689 10688 10687 10685 10685 10684 10682 10681 10679 10679 10678 10677 10675 10673 10672 10670 10668 10666 10664 10663 10661 10659 10658 10656 10653 10651 10648 10645 10642 10640 10637 10634 10631 10627 10624 10621 10617 10613 10609 10605 10601 10597 10593 10589 10584 10579 10574 10568 10563 10558 10553 10548 10542 10536 10529 10522 10514 10507 10501 10496 10489 10482 10475 10469 10460 10452 10444 10434 10425 10418 10410 10404 10400 10396
10683 10682 10683 10684 10685 10685 10686 10686 10685 10685 10684 10682 10682 10681 10679 10678 10678 10677 10676 10674 10674 10673 10672 10670 10668 10666 10664 10662 10660 10659 10658 10656 10654 10653 10650 10648 10645 10643 10640 10637 10635 10632 10628 10625 10622 10618 10615 10611 10607 10603 10599 10596 10592 10588 10583 10578 10573 10568 10562 10557 10552 10547 10541 10536 10530 10524 10517 10509 10501 10495 10490 10483 10476 10469 10463 10455 10447 10437 10427 10417 10411 10406 10399 10393 10389
10677 10677 10678 10678 10678 10678 10679 10679 10679 10679 10678 10676 10676 10675 10674 10673 10672 10672 10671 10670 10669 10668 10667 10665 10663 10661 10659 10657 10656 10655 10653 10651 10649 10647 10644 10642 10640 10637 10635 10632 10629 10626 10623 10619 10616 10612 10609 10605 10601 10598 10595 10591 10587 10582 10577 10572 10567 10562 10557 10552 10546 10541 10535 10529 10524 10518 10512 10505 10497 10490 10484 10478 10471 10463 10455 10448 10441 10433 10424 10413 10404 10398 10393 10387 10382
10671 10672 10673 10673 10672 10672 10673 10673 10673 10673 10672 10671 10670 10669 10669 10667 10667 10667 10666 10665 10664 10663 10661 10660 10658 10655 10653 10652 10651 10650 10648 10646 10644 10642 10638 10636 10635 10632 10629 10627 10623 10620 10617 10614 10610 10606 10603 10600 10597 10594 10590 10586 10581 10576 10571 10566 10561 10556 10551 10546 10540 10535 10529 10523 10518 10512 10506 10499 10491 10485 10479 10473 10465 10457 10449 10441 10433 10426 10419 10410 10400 10392 10385 10381 10378
10666 10667 10667 10667 10667 10667 10667 10667 10667 10667 10666 10665 10665 10664 10663 10662 10662 10662 10661 10660 10659 10658 10656 10654 10652 10650 10648 10648 10646 10645 10643 10642 10639 10636 10633 10630 10629 10627 10624 10621 10618 10614 10611 10608 10605 10602 10599 10596 10593 10589 10585 10580 10576 10571 10566 10560 10556 10551 10545 10540 10535 10529 10523 10517 10511 10505 10500 10493 10485 10478 10472 10465 10458 10449 10441 10434 10425 10417 10411 10404 10397 10390 10382 10375 10372
10662 10662 10662 10662 10662 10661 10661 10660 10661 10661 10661 10661 10660 10659 10658 10657 10656 10656 10655 10654 10653 10652 10651 10649 10647 10645 10644 10643 10641 10640 10639 10637 10634 10631 10627 10624 10622 10621 10618 10615 10612 10609 10606 10603 10600 10598 10595 10592 10588 10584 10579 10575 10570 10565 10560 10555 10550 10545 10540 10535 10529 10524 10517 10511 10505 10499 10493 10487 10479 10471 10464 10458 10451 10443 10435 10427 10419 10412 10405 10398 10391 10385 10378 10371 10365
10657 10657 10657 10656 10656 10656 10655 10655 10655 10656 10656 10655 10654 10654 10653 10651 10651 10650 10649 10648 10648 10647 10646 10644 10643 10641 10640 10638 10636 10635 10634 10632 10629 10625 10622 10619 10617 10614 10612 10609 10607 10604 10601 10598 10595 10593 10590 10586 10582 10578 10574 10569 10564 10559 10554 10549 10544 10540 10535 10529 10524 10518 10512 10505 10499 10493 10486 10480 10473 10465 10458 10451 10445 10438 10430 10421 10414 10407 10399 10392 10385 10380 10375 10370 10363
10650 10650 10650 10650 10650 10650 10649 10650 10650 10650 10650 10649 10649 10648 10647 10645 10645 10644 10643 10643 10643 10642 10640 10640 10638 10636 10635 10633 10631 10630 10629 10627 10624 10619 10616 10615 10612 10609 10607 10604 10602 10599 10596 10594 10590 10588 10585 10581 10577 10573 10568 10563 10558 10554 10549 10544 10539 10534 10529 10523 10518 10512 10506 10500 10494 10487 10480 10474 10467 10460 10453 10445 10439 10432 10425 10416 10408 10401 10394 10389 10383 10378 10374 10370 10364
10644 10644 10644 10644 10644 10644 10644 10645 10645 10645 10644 10644 10643 10642 10641 10640 10639 10638 10638 10638 10638 10636 10635 10634 10633 10631 10630 10629 10627 10625 10624 10622 10619 10615 10612 10610 10608 10605 10603 10600 10597 10594 10592 10589 10586 10582 10579 10576 10572 10568 10563 10558 10553 10548 10543 10538 10533 10528 10523 10518 10512 10507 10501 10494 10488 10481 10474 10467 10461 10454 10446 10439 10432 10427 10420 10413 10405 10398 10392 10387 10381 10375 10370 10366 10362
10638 10638 10639 10639 10639 10639 10639 10639 10640 10639 10638 10638 10637 10636 10635 10634 10633 10633 10633 10634 10633 10631 10630 10629 10628 10626 10625 10624 10622 10620 10618 10617 10614 10611 10609 10606 10603 10600 10598 10595 10593 10590 10587 10584 10581 10577 10574 10570 10566 10562 10558 10553 10547 10542 10538 10532 10527 10522 10517 10511 10506 10500 10495 10489 10482 10475 10468 10460 10453 10446 10439 10432 10426 10421 10415 10409 10403 10397 10391 10385 10377 10370 10365 10360 10356
10633 10633 10634 10634 10633 10633 10634 10634 10634 10634 10634 10633 10632 10631 10630 10628 10627 10627 10628 10628 10627 10625 10625 10624 10622 10621 10619 10618 10617 10614 10613 10612 10608 10605 10604 10601 10598 10595 10593 10591 10588 10586 10583 10579 10575 10572 10568 10564 10561 10557 10552 10547 10542 10537 10532 10527 10522 10516 10511 10505 10500 10494 10489 10483 10476 10469 10462 10455 10447 10439 10432 10426 10420 10415 10410 10406 10400 10395 10390 10383 10375 10367 10360 10354 10350
10628 10629 10629 10628 10627 10628 10629 10629 10629 10629 10629 10627 10626 10626 10624 10622 10622 10622 10623 10623 10621 10619 10619 10618 10617 10615 10614 10613 10611 10608 10607 10607 10603 10599 10598 10596 10593 10591 10588 10586 10584 10580 10577 10574 10570 10566 10562 10558 10555 10551 10547 10542 10536 10531 10526 10521 10515 10510 10505 10499 10494 10488 10482 10476 10469 10463 10456 10449 10441 10433 10426 10419 10415 10411 10407 10402 10397 10391 10385 10379 10371 10363 10355 10348 10343
10623 10624 10624 10623 10622 10623 10623 10623 10624 10624 10623 10622 10621 10620 10619 10617 10616 10617 10617 10617 10615 10614 10613 10612 10611 10610 10609 10607 10605 10602 10602 10602 10598 10594 10592 10590 10588 10585 10583 10581 10578 10575 10572 10568 10564 10561 10557 10553 10549 10545 10541 10536 10531 10525 10520 10515 10509 10504 10499 10494 10488 10482 10476 10470 10463 10457 10450 10443 10435 10427 10420 10414 10410 10406 10402 10397 10392 10386 10380 10373 10365 10357 10351 10344 10338
10619 10619 10618 10618 10617 10617 10617 10617 10618 10618 10617 10617 10616 10615 10613 10612 10611 10611 10611 10611 10609 10608 10607 10606 10605 10605 10603 10602 10599 10596 10595 10595 10591 10587 10586 10585 10583 10580 10577 10575 10572 10570 10567 10563 10559 10556 10552 10548 10543 10540 10535 10530 10525 10520 10514 10508 10503 10498 10493 10488 10483 10477 10471 10465 10458 10451 10445 10438 10430 10423 10416 10409 10404 10400 10396 10391 10386 10381 10377 10371 10363 10355 10348 10342 10336
10613 10612 10612 10613 10612 10612 10611 10611 10613 10613 10613 10612 10611 10610 10608 10607 10606 10606 10605 10604 10603 10602 10601 10600 10599 10599 10598 10596 10593 10590 10589 10588 10584 10581 10580 10580 10578 10576 10572 10568 10566 10564 10561 10557 10553 10550 10546 10542 10538 10534 10529 10524 10519 10514 10508 10503 10497 10492 10488 10483 10477 10472 10466 10460 10454 10447 10440 10433 10426 10418 10411 10404 10399 10394 10389 10384 10379 10375 10372 10367 10360 10353 10345 10339 10333
10608 10607 10607 10607 10607 10607 10606 10606 10609 10610 10609 10607 10605 10604 10603 10602 10601 10600 10599 10598 10597 10596 10595 10594 10594 10593 10593 10591 10588 10584 10582 10581 10577 10574 10574 10573 10572 10570 10567 10563 10559 10555 10553 10549 10546 10543 10540 10536 10532 10527 10523 10518 10514 10508 10503 10497 10492 10487 10482 10477 10472 10466 10460 10454 10447 10441 10435 10428 10421 10413 10406 10399 10392 10387 10382 10377 10372 10367 10365 10361 10356 10349 10342 10335 10330
10603 10601 10601 10602 10602 10602 10601 10602 10605 10606 10604 10601 10600 10598 10597 10596 10595 10594 10593 10592 10590 10589 10589 10588 10588 10587 10587 10585 10583 10579 10576 10574 10571 10568 10567 10566 10565 10563 10560 10557 10552 10548 10544 10541 10539 10537 10535 10531 10526 10521 10517 10512 10508 10503 10497 10492 10486 10481 10476 10471 10466 10461 10455 10448 10441 10435 10429 10422 10415 10407 10400 10393 10387 10382 10376 10371 10365 10360 10358 10355 10350 10345 10340 10333 10327
10597 10596 10595 10596 10597 10597 10597 10599 10603 10603 10599 10596 10594 10593 10591 10591 10589 10588 10587 10586 10584 10583 10582 10582 10582 10581 10580 10579 10576 10572 10570 10568 10566 10564 10561 10560 10558 10556 10554 10551 10547 10542 10539 10535 10533 10531 10529 10525 10520 10515 10511 10507 10501 10496 10492 10486 10481 10476 10470 10465 10460 10455 10449 10443 10436 10430 10424 10417 10410 10403 10396 10389 10383 10378 10373 10367 10360 10354 10350 10348 10344 10340 10336 10331 10325
10591 10591 10590 10590 10591 10591 10592 10595 10597 10595 10592 10591 10589 10587 10586 10585 10583 10582 10581 10579 10578 10577 10577 10576 10575 10575 10574 10573 10569 10566 10565 10563 10560 10559 10557 10555 10552 10550 10548 10544 10541 10538 10534 10531 10528 10525 10522 10520 10515 10509 10505 10501 10495 10490 10486 10481 10475 10470 10465 10459 10454 10449 10443 10437 10431 10424 10419 10412 10406 10399 10392 10386 10380 10374 10369 10364 10357 10350 10344 10340 10337 10334 10331 10326 10322
10586 10585 10585 10584 10584 10584 10586 10588 10588 10586 10585 10585 10583 10581 10580 10579 10578 10576 10574 10573 10572 10572 10571 10570 10569 10568 10568 10567 10564 10561 10560 10557 10554 10552 10552 10550 10547 10545 10542 10539 10536 10533 10530 10526 10522 10519 10516 10514 10510 10504 10499 10494 10489 10484 10480 10475 10469 10464 10459 10454 10449 10444 10438 10432 10425 10419 10413 10407 10401 10395 10389 10382 10377 10372 10367 10362 10355 10348 10341 10336 10331 10328 10325 10321 10316
10580 10580 10579 10578 10578 10578 10580 10581 10580 10579 10578 10577 10576 10575 10574 10573 10572 10570 10568 10567 10566 10565 10565 10563 10562 10562 10561 10560 10558 10555 10554 10552 10549 10547 10546 10545 10543 10540 10537 10534 10531 10528 10524 10521 10517 10513 10510 10508 10504 10499 10494 10488 10483 10478 10474 10469 10464 10458 10454 10449 10444 10438 10432 10426 10420 10414 10408 10402 10396 10391 10385 10379 10373 10369 10364 10360 10353 10346 10340 10334 10329 10323 10318 10315 10311
10574 10573 10573 10572 10572 10573 10573 10573 10572 10572 10571 10570 10569 10568 10567 10566 10565 10563 10562 10560 10560 10559 10558 10557 10556 10555 10555 10554 10551 10549 10548 10547 10545 10543 10542 10540 10537 10534 10532 10529 10526 10523 10519 10515 10511 10507 10504 10501 10498 10494 10488 10482 10477 10473 10468 10463 10458 10452 10447 10443 10438 10433 10427 10421 10414 10409 10403 10398 10392 10386 10381 10375 10370 10366 10361 10357 10351 10345 10338 10333 10328 10321 10315 10309 10304
10568 10567 10567 10567 10567 10567 10567 10566 10565 10565 10564 10563 10562 10561 10560 10559 10558 10556 10555 10554 10553 10552 10551 10550 10549 10549 10548 10546 10544 10542 10542 10542 10540 10537 10536 10534 10531 10528 10525 10523 10520 10517 10513 10509 10505 10501 10498 10495 10492 10487 10482 10476 10472 10467 10462 10457 10452 10446 10441 10436 10432 10427 10422 10415 10409 10404 10399 10393 10388 10383 10377 10371 10366 10362 10358 10353 10348 10343 10337 10332 10327 10322 10316 10309 10302
10560 10560 10560 10561 10561 10561 10560 10559 10559 10558 10557 10556 10555 10554 10552 10551 10550 10549 10548 10547 10546 10546 10545 10544 10543 10542 10540 10539 10537 10536 10536 10536 10534 10532 10530 10528 10525 10522 10519 10517 10514 10511 10507 10503 10499 10495 10492 10488 10485 10480 10475 10470 10466 10461 10456 10451 10446 10440 10435 10430 10426 10421 10416 10410 10404 10399 10394 10388 10383 10378 10373 10368 10363 10358 10354 10351 10346 10341 10335 10331 10326 10321 10317 10311 10304
10553 10554 10554 10554 10554 10554 10553 10552 10552 10551 10550 10549 10548 10546 10545 10544 10543 10543 10542 10541 10540 10539 10538 10538 10537 10535 10533 10531 10530 10529 10529 10529 10528 10526 10523 10521 10518 10515 10513 10511 10508 10505 10501 10497 10493 10490 10486 10482 10478 10473 10468 10464 10459 10455 10450 10445 10440 10434 10429 10424 10420 10415 10410 10405 10399 10394 10389 10384 10379 10374 10369 10364 10359 10355 10351 10348 10344 10338 10333 10328 10324 10320 10316 10311 10306
10545 10546 10546 10547 10547 10546 10546 10546 10545 10545 10544 10542 10540 10539 10538 10537 10536 10536 10535 10534 10533 10533 10532 10531 10531 10529 10526 10524 10523 10522 10522 10523 10522 10520 10517 10514 10511 10508 10506 10504 10501 10498 10495 10491 10487 10484 10480 10475 10471 10466 10462 10458 10453 10449 10444 10439 10434 10429 10423 10418 10413 10409 10404 10400 10394 10389 10384 10379 10374 10370 10365 10360 10356 10351 10348 10345 10341 10336 10330 10325 10321 10318 10314 10310 10305
10537 10537 10538 10539 10539 10539 10539 10539 10538 10538 10536 10535 10533 10531 10530 10529 10528 10528 10527 10527 10526 10526 10525 10525 10524 10522 10520 10518 10517 10515 10515 10516 10516 10514 10510 10506 10503 10501 10499 10497 10495 10492 10489 10485 10481 10477 10473 10469 10464 10460 10455 10451 10447 10443 10438 10433 10428 10423 10417 10412 10407 10403 10398 10394 10389 10383 10379 10375 10370 10365 10361 10356 10352 10348 10345 10342 10338 10334 10328 10323 10319 10316 10313 10309 10304
10529 10529 10529 10530 10531 10533 10532 10531 10531 10530 10529 10527 10526 10524 10522 10521 10520 10520 10520 10519 10518 10518 10518 10518 10518 10516 10514 10512 10510 10509 10508 10509 10509 10508 10505 10499 10496 10494 10492 10490 10488 10486 10482 10479 10475 10471 10467 10462 10458 10454 10449 10444 10440 10436 10432 10427 10423 10417 10412 10406 10401 10397 10392 10388 10383 10378 10374 10370 10365 10361 10357 10353 10349 10346 10342 10339 10336 10331 10326 10321 10316 10312 10310 10307 10303
10521 10520 10520 10522 10525 10526 10526 10525 10524 10523 10522 10521 10519 10517 10515 10514 10512 10512 10513 10512 10510 10510 10510 10511 10511 10509 10507 10506 10503 10502 10502 10502 10503 10502 10499 10493 10489 10487 10486 10484 10482 10479 10476 10472 10468 10464 10460 10455 10451 10447 10443 10438 10434 10430 10425 10421 10416 10411 10406 10400 10395 10391 10386 10382 10377 10373 10368 10365 10361 10357 10353 10349 10345 10342 10339 10336 10333 10328 10324 10319 10314 10309 10306 10304 10300
10514 10513 10512 10514 10517 10519 10519 10518 10517 10516 10515 10514 10511 10509 10507 10506 10505 10505 10505 10504 10503 10503 10503 10504 10504 10503 10501 10499 10497 10496 10495 10495 10495 10495 10492 10487 10483 10480 10479 10477 10475 10472 10469 10465 10461 10457 10453 10449 10445 10441 10436 10432 10428 10423 10418 10414 10409 10405 10399 10393 10388 10384 10380 10376 10371 10367 10363 10359 10356 10352 10348 10344 10341 10338 10335 10332 10329 10326 10321 10317 10312 10308 10304 10302 10298
10507 10505 10504 10506 10510 10512 10512 10512 10511 10509 10508 10506 10502 10500 10499 10498 10498 10498 10497 10496 10496 10496 10496 10497 10496 10496 10495 10493 10491 10489 10489 10488 10487 10486 10484 10481 10477 10473 10471 10470 10468 10465 10462 10458 10454 10450 10446 10442 10438 10434 10430 10426 10421 10417 10412 10407 10402 10397 10392 10386 10381 10377 10373 10369 10365 10361 10357 10354 10350 10347 10343 10340 10337 10334 10331 10329 10326 10322 10318 10315 10311 10306 10303 10299 10296
10498 10496 10496 10499 10503 10505 10505 10504 10503 10503 10501 10497 10493 10490 10489 10489 10490 10490 10490 10489 10489 10489 10489 10489 10489 10489 10488 10486 10485 10483 10482 10480 10479 10479 10477 10474 10471 10467 10465 10463 10461 10459 10455 10451 10447 10443 10439 10435 10432 10428 10424 10419 10415 10410 10406 10401 10395 10390 10385 10380 10374 10370 10366 10362 10359 10355 10351 10348 10345 10342 10338 10336 10333 10330 10327 10325 10322 10318 10314 10311 10308 10304 10300 10297 10293
10488 10487 10489 10493 10496 10497 10497 10496 10497 10499 10497 10491 10484 10481 10479 10479 10481 10482 10482 10481 10481 10482 10482 10482 10481 10481 10481 10480 10478 10477 10475 10473 10472 10471 10470 10468 10464 10461 10458 10456 10454 10451 10448 10444 10440 10436 10432 10429 10425 10421 10417 10413 10409 10404 10399 10394 10389 10384 10378 10373 10368 10363 10359 10356 10353 10349 10346 10342 10339 10337 10334 10331 10329 10326 10323 10321 10319 10315 10311 10308 10305 10302 10298 10295 10291
10481 10482 10483 10485 10487 10488 10488 10488 10490 10492 10491 10485 10478 10474 10472 10471 10472 10474 10475 10475 10475 10475 10475 10475 10474 10474 10474 10473 10472 10470 10468 10466 10464 10463 10461 10460 10458 10455 10452 10449 10446 10443 10440 10437 10434 10429 10425 10422 10418 10415 10411 10406 10402 10397 10392 10387 10382 10377 10371 10366 10361 10357 10353 10350 10347 10343 10340 10337 10334 10331 10329 10327 10324 10322 10319 10317 10315 10312 10308 10305 10301 10298 10295 10292 10289
10474 10475 10476 10476 10478 10479 10480 10479 10480 10480 10479 10477 10472 10468 10466 10465 10466 10467 10468 10469 10469 10469 10469 10468 10467 10467 10467 10467 10466 10464 10462 10460 10458 10455 10453 10452 10451 10449 10446 10442 10439 10436 10433 10430 10426 10422 10419 10416 10412 10408 10404 10399 10395 10390 10384 10379 10375 10370 10364 10359 10354 10350 10347 10343 10341 10338 10335 10332 10329 10327 10324 10322 10320 10318 10316 10313 10311 10308 10305 10302 10298 10295 10292 10289 10286
10466 10468 10469 10469 10470 10471 10471 10471 10471 10471 10470 10468 10465 10462 10460 10460 10459 10460 10462 10463 10463 10462 10462 10461 10461 10460 10460 10460 10459 10458 10456 10454 10451 10449 10446 10445 10443 10441 10438 10435 10433 10430 10427 10423 10419 10416 10412 10409 10405 10401 10396 10392 10388 10383 10378 10373 10368 10363 10358 10353 10348 10344 10341 10337 10335 10333 10330 10327 10324 10322 10320 10318 10316 10314 10312 10310 10307 10304 10301 10299 10296 10293 10290 10287 10284
10458 10461 10461 10462 10463 10463 10463 10463 10463 10463 10463 10461 10458 10457 10456 10454 10453 10454 10455 10456 10456 10456 10455 10454 10453 10453 10453 10452 10451 10451 10449 10447 10444 10442 10440 10438 10436 10433 10431 10428 10426 10423 10420 10416 10412 10409 10406 10402 10398 10394 10390 10386 10382 10377 10372 10367 10362 10357 10353 10348 10343 10339 10335 10332 10330 10328 10325 10322 10320 10317 10315 10313 10311 10309 10308 10306 10303 10301 10298 10295 10293 10291 10288 10285 10282
10451 10452 10452 10453 10453 10454 10455 10455 10455 10455 10455 10454 10452 10451 10450 10449 10448 10448 10449 10449 10449 10449 10448 10447 10445 10445 10445 10445 10444 10444 10442 10440 10437 10434 10432 10430 10428 10426 10424 10421 10418 10416 10413 10409 10406 10402 10399 10395 10391 10387 10383 10379 10375 10371 10366 10360 10355 10351 10347 10342 10338 10334 10330 10327 10325 10323 10320 10318 10315 10312 10311 10309 10307 10305 10303 10301 10299 10297 10295 10292 10290 10288 10285 10282 10279
10443 10443 10443 10443 10444 10445 10446 10446 10446 10446 10446 10445 10444 10443 10443 10442 10442 10442 10443 10443 10442 10441 10441 10440 10438 10437 10437 10437 10437 10437 10436 10433 10429 10426 10424 10422 10420 10419 10416 10413 10411 10409 10406 10402 10399 10396 10392 10387 10383 10380 10376 10372 10368 10364 10359 10353 10349 10345 10340 10336 10332 10328 10325 10322 10320 10318 10315 10313 10310 10308 10306 10304 10302 10300 10298 10296 10294 10292 10290 10288 10286 10284 10282 10279 10276
10435 10435 10434 10434 10435 10436 10436 10436 10436 10436 10436 10436 10435 10435 10435 10435 10435 10435 10436 10437 10436 10435 10434 10433 10431 10429 10428 10428 10429 10430 10429 10426 10422 10418 10416 10415 10413 10411 10408 10406 10404 10401 10398 10395 10392 10389 10385 10380 10376 10373 10369 10364 10360 10356 10352 10347 10342 10338 10335 10331 10327 10323 10320 10317 10314 10312 10310 10308 10306 10303 10301 10300 10298 10296 10294 10292 10290 10288 10286 10285 10283 10280 10278 10276 10273
10426 10427 10426 10426 10427 10427 10427 10427 10427 10427 10427 10427 10427 10427 10427 10428 10428 10429 10429 10430 10430 10429 10427 10425 10423 10420 10419 10419 10420 10421 10420 10417 10414 10412 10410 10408 10405 10403 10401 10399 10396 10394 10391 10388 10385 10382 10378 10374 10370 10366 10362 10357 10353 10349 10345 10341 10337 10333 10329 10326 10322 10319 10315 10312 10310 10307 10305 10303 10301 10299 10297 10296 10295 10292 10290 10288 10286 10284 10283 10281 10279 10277 10275 10273 10270
10417 10418 10418 10418 10418 10418 10418 10418 10417 10417 10418 10418 10419 10420 10420 10421 10421 10421 10422 10422 10422 10421 10420 10419 10416 10413 10412 10412 10412 10411 10410 10409 10407 10404 10402 10400 10398 10396 10394 10392 10389 10386 10383 10381 10378 10375 10371 10367 10363 10360 10355 10351 10347 10343 10339 10335 10332 10328 10324 10321 10317 10314 10311 10308 10305 10303 10301 10298 10297 10294 10292 10291 10290 10289 10286 10283 10281 10280 10279 10277 10275 10273 10271 10269 10267
10409 10410 10409 10409 10409 10408 10408 10408 10408 10409 10410 10411 10412 10413 10414 10414 10414 10414 10414 10414 10413 10413 10412 10411 10409 10406 10405 10405 10404 10401 10401 10401 10399 10396 10394 10392 10390 10388 10386 10384 10381 10379 10376 10374 10371 10368 10364 10360 10357 10353 10349 10345 10341 10337 10333 10330 10326 10323 10320 10316 10313 10310 10307 10304 10301 10299 10297 10294 10292 10290 10288 10287 10285 10284 10282 10280 10278 10276 10275 10273 10271 10269 10267 10265 10263
10401 10401 10400 10399 10400 10400 10400 10401 10402 10403 10404 10404 10405 10406 10407 10407 10407 10406 10406 10405 10405 10404 10403 10403 10402 10400 10399 10398 10396 10394 10393 10393 10391 10388 10386 10384 10382 10380 10378 10376 10374 10371 10369 10366 10364 10361 10358 10354 10350 10346 10342 10338 10334 10331 10328 10324 10321 10318 10315 10312 10309 10306 10303 10300 10297 10295 10292 10290 10288 10286 10284 10282 10280 10279 10278 10276 10274 10273 10271 10269 10267 10265 10263 10261 10260
10393 10392 10390 10390 10392 10394 10394 10395 10396 10396 10396 10397 10398 10399 10399 10399 10399 10399 10398 10397 10396 10395 10395 10395 10394 10392 10391 10390 10388 10386 10385 10384 10384 10382 10379 10376 10373 10372 10370 10369 10366 10364 10361 10359 10357 10354 10351 10347 10343 10339 10335 10331 10328 10324 10322 10319 10316 10313 10309 10307 10304 10301 10298 10295 10292 10290 10288 10285 10283 10281 10279 10277 10275 10274 10273 10271 10270 10268 10266 10265 10263 10261 10259 10257 10256
10387 10385 10383 10383 10385 10387 10388 10389 10389 10388 10389 10390 10391 10391 10391 10391 10391 10391 10391 10390 10389 10387 10387 10387 10386 10384 10382 10380 10378 10377 10375 10374 10375 10375 10373 10369 10365 10363 10362 10361 10359 10356 10353 10351 10348 10346 10343 10340 10336 10333 10329 10325 10321 10318 10316 10313 10311 10308 10304 10302 10299 10296 10293 10290 10288 10286 10283 10281 10278 10276 10274 10272 10270 10269 10267 10266 10265 10263 10261 10260 10258 10256 10255 10253 10252
10379 10378 10377 10377 10378 10380 10381 10382 10381 10381 10382 10382 10382 10383 10383 10382 10382 10382 10383 10382 10381 10379 10379 10379 10378 10376 10374 10371 10369 10367 10366 10365 10365 10365 10365 10362 10358 10355 10354 10352 10351 10348 10346 10343 10340 10337 10335 10332 10329 10326 10322 10319 10315 10312 10310 10308 10305 10303 10299 10297 10294 10291 10288 10286 10284 10281 10279 10277 10274 10272 10270 10267 10265 10264 10262 10261 10259 10258 10256 10255 10253 10252 10251 10249 10248
10371 10370 10371 10372 10372 10373 10373 10372 10372 10373 10373 10373 10373 10374 10374 10374 10374 10373 10373 10373 10372 10371 10371 10371 10370 10369 10367 10365 10362 10359 10358 10356 10355 10355 10355 10354 10352 10348 10346 10344 10343 10341 10338 10336 10332 10329 10327 10324 10322 10318 10315 10312 10309 10306 10304 10302 10300 10297 10294 10291 10289 10286 10284 10281 10279 10277 10275 10272 10270 10268 10265 10263 10261 10259 10258 10256 10255 10253 10251 10250 10249 10248 10246 10245 10243